Boone, NC

11:54 AM EDT on May 23, 2017 (GMT -0400)
Boone

Weather History for KTNB - January, 2014

Change the Weather History Date:

Wednesday, January 1, 2014

  Actual Average (KGEV) Record (KGEV)
Temperature  
Mean Temperature 29 °F -  
Max Temperature 41 °F 45 °F 64 °F (2005)
Min Temperature 18 °F 27 °F -1 °F (1969)
Degree Days  
Heating Degree Days 36    
Moisture  
Dew Point 21 °F    
Average Humidity 74    
Maximum Humidity 100    
Minimum Humidity 44    
Precipitation  
Precipitation 0.00 in - - ()
Sea Level Pressure  
Sea Level Pressure 30.21 in    
Wind  
Wind Speed 2 mph (South)    
Max Wind Speed 10 mph    
Max Gust Speed 18 mph    
Visibility 10 miles    
Events      
Averages and records for this station are not official NWS values.
T = Trace of Precipitation, MM = Missing Value Source: NWS Daily Summary

Daily Weather History Graph

Daily Weather History Graph

Search for Another Location

Airport or City:

Trip Planner

Search our weather history database for the weather conditions in past years. The results will help you decide how hot, cold, wet, or windy it might be!

Date:

Astronomy

Jan. 01, 2014 Rise Set
Actual Time 7:37 AM EST 5:22 PM EST
Civil Twilight 7:09 AM EST 5:51 PM EST
Nautical Twilight 6:37 AM EST 6:23 PM EST
Astronomical Twilight 6:06 AM EST 6:54 PM EST
Moon 7:29 AM EST (1/1) 6:03 PM EST (1/1)
Length of Visible Light 10h 42m
Length of Day
9h 44m
New Moon, 0% of the Moon is Illuminated
Jan 1
New Moon
Jan 7
First Quarter
Jan 15
Full
Jan 24
Last Quarter
Jan 30
New

Hourly Weather History & Observations

Time (EST) Temp. Windchill Dew Point Humidity Pressure Visibility Wind Dir Wind Speed Gust Speed Precip Events Conditions
12:15 AM 24.8 °F 17.9 °F 16.7 °F 71% 30.29 in 10.0 mi West 5.8 mph - N/A   Clear
12:35 AM 24.6 °F - 17.2 °F 74% 30.28 in 10.0 mi Calm Calm - N/A   Clear
12:55 AM 24.4 °F 20.1 °F 17.4 °F 75% 30.28 in 10.0 mi West 3.5 mph - N/A   Clear
1:15 AM 23.4 °F - 18.1 °F 80% 30.28 in 10.0 mi Calm Calm - N/A   Clear
1:35 AM 22.6 °F - 18.3 °F 83% 30.28 in 10.0 mi Calm Calm - N/A   Clear
1:55 AM 21.9 °F - 18.3 °F 86% 30.28 in 10.0 mi Calm Calm - N/A   Clear
2:15 AM 22.5 °F - 18.5 °F 85% 30.28 in 10.0 mi Calm Calm - N/A   Clear
2:35 AM 22.6 °F - 18.1 °F 83% 30.29 in 10.0 mi Calm Calm - N/A   Clear
2:55 AM 21.7 °F - 18.7 °F 88% 30.28 in 10.0 mi Calm Calm - N/A   Clear
3:15 AM 22.1 °F - 18.5 °F 86% 30.29 in 10.0 mi Calm Calm - N/A   Clear
3:35 AM 22.5 °F - 19.4 °F 88% 30.29 in 10.0 mi Calm Calm - N/A   Clear
3:55 AM 22.6 °F - 18.7 °F 85% 30.28 in 10.0 mi Calm Calm - N/A   Clear
4:15 AM 22.8 °F - 19.4 °F 87% 30.28 in 10.0 mi Calm Calm - N/A   Clear
4:35 AM 22.8 °F - 19.2 °F 86% 30.28 in 10.0 mi Calm Calm - N/A   Clear
4:55 AM 23.0 °F - 19.2 °F 85% 30.28 in 10.0 mi Calm Calm - N/A   Clear
5:15 AM 23.0 °F - 19.0 °F 85% 30.27 in 10.0 mi Calm Calm - N/A   Clear
5:35 AM 21.4 °F - 19.0 °F 91% 30.28 in 10.0 mi Calm Calm - N/A   Clear
5:55 AM 21.6 °F - 20.5 °F 96% 30.28 in 10.0 mi Calm Calm - N/A   Clear
6:15 AM 20.8 °F - 20.1 °F 97% 30.28 in 10.0 mi Calm Calm - N/A   Clear
6:35 AM 19.6 °F - 19.6 °F 100% 30.28 in 10.0 mi Calm Calm - N/A   Clear
6:55 AM 19.9 °F - 19.9 °F 100% 30.28 in 10.0 mi Calm Calm - N/A   Clear
7:15 AM 19.0 °F - 19.0 °F 100% 30.27 in 10.0 mi Calm Calm - N/A   Clear
7:35 AM 19.2 °F - 19.0 °F 99% 30.27 in 10.0 mi Calm Calm - N/A   Clear
7:55 AM 19.0 °F - 19.0 °F 100% 30.28 in 10.0 mi Calm Calm - N/A   Clear
8:15 AM 18.9 °F - 18.9 °F 100% 30.28 in 10.0 mi Calm Calm - N/A   Clear
8:35 AM 20.5 °F - 20.3 °F 99% 30.28 in 10.0 mi Calm Calm - N/A   Clear
8:55 AM 22.5 °F - 21.2 °F 95% 30.28 in 10.0 mi Calm Calm - N/A   Clear
9:15 AM 23.7 °F - 21.4 °F 91% 30.29 in 10.0 mi Calm Calm - N/A   Clear
9:35 AM 25.7 °F - 20.3 °F 80% 30.29 in 10.0 mi Calm Calm - N/A   Clear
9:55 AM 26.6 °F - 20.7 °F 78% 30.29 in 10.0 mi Calm Calm - N/A   Clear
10:15 AM 28.6 °F - 20.7 °F 72% 30.29 in 10.0 mi Calm Calm - N/A   Clear
10:35 AM 30.9 °F - 22.5 °F 71% 30.28 in 10.0 mi Calm Calm - N/A   Clear
10:55 AM 34.3 °F 31.4 °F 21.9 °F 60% 30.28 in 10.0 mi SSW 3.5 mph - N/A   Clear
11:15 AM 37.6 °F 34.0 °F 18.7 °F 47% 30.27 in 10.0 mi SSW 4.6 mph - N/A   Clear
11:35 AM 38.3 °F 31.9 °F 19.9 °F 48% 30.26 in 10.0 mi SW 9.2 mph 18.4 mph N/A   Clear
11:55 AM 38.7 °F 32.9 °F 20.3 °F 48% 30.25 in 10.0 mi SSW 8.1 mph 17.3 mph N/A   Clear
12:15 PM 39.4 °F 36.1 °F 19.6 °F 45% 30.23 in 10.0 mi South 4.6 mph - N/A   Clear
12:35 PM 39.9 °F 36.7 °F 20.1 °F 45% 30.22 in 10.0 mi SSW 4.6 mph - N/A   Clear
12:55 PM 39.0 °F 33.4 °F 19.8 °F 46% 30.22 in 10.0 mi South 8.1 mph - N/A   Clear
1:15 PM 38.8 °F 34.6 °F 19.6 °F 46% 30.21 in 10.0 mi SSE 5.8 mph - N/A   Clear
1:35 PM 39.4 °F 32.7 °F 19.2 °F 44% 30.20 in 10.0 mi SSW 10.4 mph - N/A   Clear
1:55 PM 39.9 °F 35.8 °F 20.1 °F 45% 30.18 in 10.0 mi SSW 5.8 mph - N/A   Clear
2:15 PM 40.5 °F 38.4 °F 19.9 °F 44% 30.18 in 10.0 mi SSE 3.5 mph - N/A   Clear
2:35 PM 39.6 °F 34.7 °F 20.8 °F 47% 30.17 in 10.0 mi SE 6.9 mph - N/A   Clear
2:55 PM 39.9 °F 36.7 °F 21.2 °F 47% 30.17 in 10.0 mi South 4.6 mph - N/A   Clear
3:15 PM 38.3 °F 35.9 °F 21.6 °F 51% 30.16 in 10.0 mi SE 3.5 mph - N/A   Clear
3:35 PM 38.5 °F 35.0 °F 21.0 °F 50% 30.17 in 10.0 mi South 4.6 mph - N/A   Clear
3:55 PM 38.5 °F 35.0 °F 20.3 °F 48% 30.16 in 10.0 mi SSW 4.6 mph - N/A   Clear
4:15 PM 37.4 °F 33.8 °F 21.0 °F 52% 30.16 in 10.0 mi SSE 4.6 mph - N/A   Clear
4:35 PM 37.4 °F 34.9 °F 21.0 °F 52% 30.16 in 10.0 mi SSE 3.5 mph - N/A   Clear
4:55 PM 36.0 °F - 21.6 °F 56% 30.16 in 10.0 mi Calm Calm - N/A   Clear
5:15 PM 34.7 °F - 22.1 °F 60% 30.16 in 10.0 mi Calm Calm - N/A   Clear
5:35 PM 34.7 °F 31.8 °F 21.9 °F 60% 30.16 in 10.0 mi SSE 3.5 mph - N/A   Clear
5:55 PM 32.7 °F - 22.3 °F 65% 30.16 in 10.0 mi Calm Calm - N/A   Clear
6:15 PM 32.4 °F 29.1 °F 22.8 °F 68% 30.16 in 10.0 mi SSW 3.5 mph - N/A   Clear
6:35 PM 30.2 °F 26.7 °F 23.2 °F 75% 30.16 in 10.0 mi SW 3.5 mph - N/A   Clear
6:55 PM 30.7 °F 27.3 °F 23.2 °F 74% 30.16 in 10.0 mi South 3.5 mph - N/A   Clear
7:15 PM 30.9 °F - 23.2 °F 73% 30.15 in 10.0 mi Calm Calm - N/A   Clear
7:35 PM 30.2 °F - 23.0 °F 75% 30.14 in 10.0 mi Calm Calm - N/A   Clear
7:55 PM 30.2 °F - 23.0 °F 75% 30.14 in 10.0 mi Calm Calm - N/A   Clear
8:15 PM 29.7 °F - 23.2 °F 77% 30.14 in 10.0 mi Calm Calm - N/A   Clear
8:35 PM 29.1 °F - 23.0 °F 78% 30.13 in 10.0 mi Calm Calm - N/A   Clear
8:55 PM 28.4 °F - 23.4 °F 81% 30.12 in 10.0 mi Calm Calm - N/A   Clear
9:15 PM 28.2 °F - 23.0 °F 81% 30.12 in 10.0 mi Calm Calm - N/A   Clear
9:35 PM 28.4 °F - 23.0 °F 80% 30.11 in 10.0 mi Calm Calm - N/A   Clear
9:55 PM 28.2 °F - 23.0 °F 81% 30.10 in 10.0 mi Calm Calm - N/A   Clear
10:15 PM 26.8 °F - 23.4 °F 87% 30.10 in 10.0 mi Calm Calm - N/A   Clear
10:35 PM 27.1 °F - 23.7 °F 87% 30.10 in 10.0 mi Calm Calm - N/A   Clear
10:55 PM 27.1 °F - 23.7 °F 87% 30.08 in 10.0 mi Calm Calm - N/A   Clear
11:15 PM 25.7 °F - 25.2 °F 98% 30.09 in 10.0 mi Calm Calm - N/A   Clear
11:35 PM 26.6 °F - 23.7 °F 89% 30.07 in 10.0 mi Calm Calm - N/A   Clear
11:55 PM 27.1 °F - 23.5 °F 86% 30.07 in 10.0 mi Calm Calm - N/A   Clear